DMSP 5D-2 F13 DEB

Satellite information

Favourite Embed

Satellite Type and Status

DEBRISIN ORBIT

Key statistics

Satellite DMSP 5D-2 F13 DEB at a glance.

Uptime

11063

Days in orbit

Revolutions

≈ 14.4

Per day

Orbit

SSO

Sun Synchronous Orbit

Inclination

98.7

Latest

Satellite identification and parameters

Extended collection of information and parameters for DMSP 5D-2 F13 DEB.

Object identification

Identified? True

Debris? True

Object name: DMSP 5D-2 F13 DEB

International designator: 1995-015EY

Object number (NORAD): 40601

Object ID (CCSDS): 40601

Country: UNITED STATES OF AMERICA (US)

Current information (Y/N): Y

RCS size: SMALL

Orbital parameters

Period: 99.875 minutes

Inclination: 98.6604 deg

SMA: 7130.706 km

Apoapsis: 760.599 km

Periapsis: 744.544 km

RAAN: 226.0719 deg

Eccentricy: 0.0011258

Argument of periapsis: 154.3196 deg

Mean anomaly: 205.8554 deg

Mean motion: 14.41796402 rev/day

Mean motion (dot): 0.00004643 rev/day2

B* drag term: 0.0014334 1/REarth

Two-line elements (TLE)

Creation date: July 6, 2025, 10:56 p.m.

Reference frame: TEME

Reference center: EARTH

Epoch: July 6, 2025, 2:21 p.m. UTC

TLE line 0: 0 DMSP 5D-2 F13 DEB

TLE line 1: 1 40601U 95015EY 25187.59806938 .00004643 00000-0 14334-2 0 9996

TLE line 2: 2 40601 98.6604 226.0719 0011258 154.3196 205.8554 14.41796402533647

Live tracking on map

Real-time ground track for satellite DMSP 5D-2 F13 DEB.

In-orbit conjunctions

A list of the most updated potential collisions computed for object DMSP 5D-2 F13 DEB.

Target Orbit TCA Probability of collision Miss distance Type
CZ-6A DEB LEO 2024-11-30 20:13:20 0.0001117217 886.0 (m) DEBRIS
FENGYUN 1C DEB SSO 2024-11-10 23:54:52 0.0001971166 535.0 (m) DEBRIS
COSMOS 1777 LEO 2024-06-05 18:44:37 0.0001776459 422.0 (m) PAYLOAD

Associated space launch

Military meteorological satellite

DMSP 5D-2 F13 DEB was lifted into orbit during the mission ‘Atlas E | DMSP-5D2 F13’, on board a Atlas E space rocket.

The launch took place on March 24, 1995, 2:05 p.m. from Space Launch Complex 3W.

For more information about the launch, click the button.

Launch to space Atlas E | DMSP-5D2 F13
Atlas E | DMSP-5D2 F13

Agency: N/A

Status: Launch Successful

Launch date: March 24, 1995, 2:05 p.m. UTC

Rocket: Atlas E

Launch pad: Space Launch Complex 3W

Location: Vandenberg SFB, CA, USA

...

Latest news about this satellite

There are no fresh news available about this satellite. Check back as we update our databases every day.


Newsletter sign-up

Weekly statistics, charts and insights to help you stay on top of the space industry.